User: anonymous   Login
Location: Cran-Gévrier
(45.9039°N, 6.1012°E)
Time: 23:50:55
(UTC+00:00)
Language:

Okean O Rocket - Orbit

View from above orbital plane
View from above orbital plane
View from above satellite
View from above satellite

Ground track
Ground track

The orbit data is extracted from the following two-line orbital elements,

1 25861U 99039B   23154.59549212  .00000602  00000-0  88165-4 0  9994
2 25861  98.1388 191.7440 0014030 284.3004  75.6648 14.79331389287401
Epoch (UTC): 03 June 2023 14:17:30
Eccentricity: 0.0014030
inclination: 98.1388°
perigee height: 621 km
apogee height: 641 km
right ascension of ascending node: 191.7440°
argument of perigee: 284.3004°
revolutions per day: 14.79331389
mean anomaly at epoch: 75.6648°
orbit number at epoch: 28740

The dashed part of the orbit path shows where the satellite is in the earth's shadow,  

DLR